Погода в Стейнхьере

Норвегия     64°00′46″N   11°29′32″E
темп.,
°C
ветер,
м/с
пор.,
м/с
влажн.,
%
обл.,
%
осадки,
мм/ч
давл.,
гПа
погр.,
м
16 июня, ср
ср1623:00+5зюз397918 0.2 1016299
02:00+3ююз118899 0.2 101626
05:00+5ю138879 0.0 1016168
08:00+7ю1372100 0.0 1015647
11:00+12юз234982 0.0 10141220
14:00+15ю23419 0.0 10121656
17:00+17юв234216 0.0 10101288
20:00+16св235899 0.0 1009112
17 июня, чт
чт1723:00+13ссв2268100 0.0 101034
02:00+11юз1173100 0.0 101110
05:00+12сз1176100 0.0 101112
08:00+13ссв247187 0.0 1011143
11:00+19с3351100 0.0 10101137
14:00+20ссз3252100 0.0 10101149
17:00+18с446196 0.0 1010761
20:00+15с4771100 0.0 1011550
18 июня, пт
пт1823:00+12ссз1287100 0.0 101186
02:00+11ссв1196100 0.6 100953
05:00+11сз1197100 1.3 100977
08:00+11зюз1298100 2.9 1011107
11:00+11зюз4796100 1.4 1013590
14:00+10юз2691100 1.8 1016668
17:00+9зюз4985100 0.6 1018913
20:00+11зюз48685 0.7 10181230
19 июня, сб
сб1923:00+7юз23915 0.0 102054
02:00+6ююз129390 0.0 102146
05:00+7ю128698 0.0 1020142
08:00+10ююв116853 0.0 1020563
11:00+14ссв1148100 0.0 10181268
14:00+16св1243100 0.0 10161634
17:00+15с2347100 0.0 10141286
20:00+12ссз3661100 0.0 1015483
20 июня, вс
вс2023:00+9ссз2373100 0.0 101697
02:00+8с127965 0.0 101787
05:00+6с11865 0.0 101839
08:00+11зсз00585 0.0 1018530
11:00+14юз225013 0.0 10181065
14:00+16юз3448100 0.0 10171437
17:00+16сз3350100 0.0 10171390
20:00+12ссз335766 0.0 1019694